Vorticity
nan nan nan nan nan nan nan nan nan nan nan nan nan nan nan nan nan nan nan nan nan nan nan nan nan nan nan nan nan nan nan nan nan nan nan nan nan nan nan nan nan nan nan nan nan nan nan nan nan nan nan nan nan nan nan nan nan nan nan nan nan nan nan nan nan nan nan nan nan nan nan nan nan nan nan nan nan nan nan nan nan nan nan nan nan nan nan nan nan nan nan nan nan nan nan nan nan nan nan nan nan nan nan
nan 5 5 5 5 5 5 4 5 5 4 4 4 4 3 3 3 4 4 3 4 4 4 4 4 4 4 3 4 4 4 4 5 4 4 4 4 4 3 5 8 13 17 18 14 9 4 2 5 7 7 6 6 5 5 5 6 6 7 7 7 10 14 12 8 5 5 5 4 4 4 4 4 5 4 4 4 4 6 7 6 5 3 3 3 4 5 6 6 6 6 5 4 4 4 5 6 7 8 9 9 9 nan
nan 5 5 5 5 5 5 5 5 5 4 4 4 3 3 3 3 3 4 4 4 4 4 4 4 4 4 4 4 4 4 4 4 4 4 4 3 3 3 4 7 10 13 13 12 8 3 4 6 7 7 6 6 6 5 5 5 5 6 6 7 11 15 9 6 4 5 5 5 4 5 5 6 6 6 5 4 4 5 7 7 7 5 4 3 4 4 5 5 6 6 4 3 3 3 4 5 6 7 7 9 8 nan
nan 5 5 5 5 5 6 5 5 5 4 4 3 3 3 3 3 4 4 4 4 4 4 4 4 4 4 4 4 4 4 4 4 4 4 3 3 3 3 4 5 7 9 10 9 7 4 5 7 7 6 5 5 5 4 5 5 5 5 6 7 12 14 7 5 5 5 6 6 5 5 7 8 8 8 6 5 4 5 5 6 7 7 6 5 5 5 5 5 6 5 4 4 3 3 3 4 5 5 6 6 6 nan
nan 5 5 4 5 6 6 5 5 4 4 3 3 3 3 3 4 4 4 4 4 4 4 4 4 4 4 4 4 3 3 4 4 4 3 3 3 3 3 3 4 5 7 9 9 8 8 7 6 5 5 4 4 4 4 4 5 5 5 7 10 14 13 6 5 5 7 7 7 7 7 9 10 10 9 7 5 4 4 4 5 6 6 6 6 5 5 5 5 5 5 4 4 4 3 4 4 4 5 5 5 5 nan
nan 5 4 4 4 6 7 6 5 4 3 3 3 3 4 4 5 5 5 5 5 5 5 5 5 4 4 4 4 4 4 4 4 4 3 3 3 2 3 3 3 4 6 9 10 9 9 7 5 5 5 4 4 4 4 4 5 5 5 7 12 15 11 6 6 6 8 8 8 9 9 11 12 11 9 8 7 5 3 3 4 4 5 5 5 5 5 5 5 5 5 5 4 4 4 4 4 5 5 5 5 5 nan
nan 4 3 3 4 7 7 6 5 4 3 4 4 4 4 5 5 5 5 5 5 5 5 5 5 5 4 4 4 4 4 4 4 3 3 3 2 2 2 2 3 4 5 8 10 10 9 7 7 6 5 5 5 5 5 5 6 5 5 7 12 12 8 7 7 8 9 9 9 9 10 11 11 11 10 10 10 7 4 4 4 3 4 4 4 4 4 4 4 5 5 4 4 4 4 4 4 5 5 5 5 5 nan
nan 4 3 3 4 7 8 7 5 4 4 4 4 5 5 5 6 6 6 6 6 6 6 6 5 5 5 4 4 4 4 4 3 3 3 2 2 2 2 2 3 3 5 7 10 11 10 8 6 6 5 5 6 6 6 6 5 5 5 7 8 8 8 7 7 8 9 10 10 10 10 10 9 8 10 11 11 8 5 4 3 4 4 4 4 4 4 4 4 4 5 5 5 5 4 5 5 5 5 5 6 6 nan
nan 3 3 3 4 7 8 8 6 5 4 4 5 5 6 6 6 6 6 6 7 7 7 6 6 6 5 5 4 4 4 4 3 3 2 2 2 2 2 2 3 3 4 7 9 12 10 7 6 5 5 6 6 6 6 5 5 5 5 6 8 9 10 9 7 8 9 11 12 12 10 8 7 7 8 9 8 6 4 4 4 4 4 4 4 4 4 4 4 4 4 5 5 5 5 5 5 5 5 6 6 6 nan
nan 3 3 3 4 6 8 9 7 5 4 4 5 5 6 6 6 6 7 7 7 7 7 7 6 6 6 5 5 4 4 4 3 3 2 2 2 2 2 2 3 3 4 6 9 11 10 7 6 6 5 6 6 6 5 5 5 5 5 6 11 13 13 10 7 7 9 12 14 15 12 7 5 5 7 7 6 5 4 4 4 4 4 4 4 4 4 4 4 4 4 5 5 5 5 5 5 5 5 6 6 6 nan
nan 3 3 3 4 5 8 9 7 6 4 4 5 5 6 6 6 7 7 8 8 8 7 7 7 7 6 5 5 4 4 3 3 2 2 2 2 2 2 2 3 4 5 7 8 9 9 8 7 6 6 6 6 5 4 5 6 6 6 9 14 16 14 9 6 6 8 11 13 14 12 8 6 5 5 5 5 4 4 4 4 4 4 4 4 4 4 4 4 5 5 5 5 5 5 5 5 5 5 6 6 6 nan
nan 4 2 2 4 5 7 9 7 5 4 4 5 5 5 6 6 7 7 8 8 8 8 7 7 7 6 5 5 4 4 3 2 2 1 1 1 1 2 2 3 5 6 7 7 7 7 7 7 7 7 6 5 5 5 6 6 6 7 13 15 15 12 7 5 4 5 6 8 10 11 9 7 5 4 4 4 4 4 4 4 4 4 5 5 5 5 5 5 5 5 5 5 5 5 5 5 6 6 6 6 6 nan
nan 3 1 2 5 6 8 8 6 5 4 4 4 5 5 5 6 6 7 8 8 8 8 8 8 7 6 5 5 4 3 3 2 1 1 1 1 1 1 2 4 5 6 7 6 6 5 7 8 7 6 6 5 6 6 6 7 8 11 15 16 13 9 6 4 4 3 3 4 5 6 6 5 4 4 4 4 4 4 4 4 4 5 5 5 5 5 5 5 5 6 6 6 6 5 6 6 6 6 6 7 7 nan
nan 1 2 4 7 8 9 8 6 4 4 4 4 4 4 5 6 6 7 7 8 8 8 8 7 7 6 5 4 4 3 3 2 1 1 1 1 1 1 2 4 6 7 7 7 6 6 8 8 7 6 5 6 6 6 6 8 11 17 16 14 12 8 5 4 4 3 2 2 3 4 4 4 3 3 3 3 3 4 4 4 5 5 5 5 5 5 6 6 6 6 6 6 6 6 6 6 6 6 6 7 7 nan
nan 2 4 6 7 9 10 8 6 4 4 4 4 4 4 5 5 6 6 7 7 7 7 7 7 6 5 4 4 4 3 3 2 2 1 1 1 2 2 3 5 6 7 8 7 8 8 8 8 7 6 6 6 6 6 7 9 15 18 13 12 10 7 5 4 4 3 2 2 2 3 3 3 3 3 3 3 3 4 5 5 5 6 6 6 6 6 6 6 6 6 6 6 6 6 6 6 6 6 6 6 7 nan
nan 5 6 6 7 9 10 9 7 5 4 4 4 4 4 4 5 5 5 6 6 6 6 6 6 5 5 4 4 3 3 4 3 3 2 2 2 2 2 4 5 7 8 8 8 8 8 8 8 8 7 6 7 7 7 8 12 15 14 10 10 9 7 6 6 5 4 3 3 2 3 3 3 3 3 4 4 4 4 5 5 6 6 7 7 7 7 6 6 6 6 6 6 6 6 6 6 5 6 6 6 6 nan
nan 7 6 6 6 8 9 9 7 5 4 4 4 4 4 4 5 5 5 5 5 5 5 5 5 5 4 4 3 2 2 5 7 7 6 4 3 3 4 5 7 8 8 8 8 8 8 8 8 8 7 7 7 7 7 9 14 14 10 9 9 8 8 7 6 5 4 3 3 3 3 3 3 3 4 4 5 5 5 6 6 6 7 7 7 7 7 7 7 6 6 6 6 6 6 6 6 6 6 6 6 6 nan
nan 8 7 6 6 7 8 8 7 6 5 5 4 4 4 4 4 5 5 5 5 5 4 5 5 5 4 2 1 2 3 6 8 9 9 8 6 5 7 8 8 8 8 8 8 8 8 9 8 8 8 7 7 7 8 11 15 13 9 8 9 9 8 7 6 5 4 3 3 3 3 3 3 3 4 5 5 6 6 6 7 7 7 7 7 7 7 7 7 7 7 6 6 6 6 6 6 6 6 6 6 6 nan
nan 9 7 6 6 6 6 6 6 6 6 6 5 5 4 4 4 4 5 5 5 5 4 4 5 5 4 2 1 2 5 6 7 8 8 9 9 9 10 10 9 8 8 8 8 8 9 9 9 9 8 7 7 7 8 12 15 13 10 9 9 9 8 6 5 5 3 3 3 3 3 3 3 4 5 5 6 6 6 7 7 7 7 8 7 7 7 7 7 7 7 6 6 6 6 6 6 6 6 6 6 6 nan
nan 10 9 7 6 6 6 6 6 6 6 6 6 6 6 5 5 5 5 5 5 5 5 5 5 6 4 2 2 3 5 6 7 7 7 8 9 10 10 9 8 7 8 7 8 8 8 8 8 8 8 8 7 7 9 12 15 14 11 9 9 8 7 6 5 4 3 3 3 3 3 3 4 4 5 6 6 6 6 7 7 7 7 7 8 8 8 8 8 8 7 7 6 6 6 6 6 6 6 6 6 6 nan
nan 10 10 10 9 8 7 7 7 7 7 6 4 6 8 9 9 9 7 7 7 7 6 4 3 5 6 5 4 4 5 6 6 6 6 7 8 8 8 7 7 7 8 8 8 8 8 8 8 8 8 7 7 8 10 13 14 12 11 10 9 8 7 6 5 4 3 3 3 3 3 4 4 5 5 6 6 7 6 6 7 7 7 8 8 8 8 8 8 7 7 7 6 6 6 6 6 6 6 6 6 6 nan
nan 7 9 10 9 9 7 7 8 8 10 8 2 4 7 10 11 12 9 7 9 10 8 5 3 5 8 7 6 5 5 5 6 6 6 6 6 7 7 7 7 7 8 8 8 9 8 8 8 8 8 7 8 8 11 14 12 10 10 9 8 8 7 6 5 4 3 3 3 3 4 4 4 5 6 6 7 7 7 6 7 7 7 7 7 7 7 7 7 7 7 6 6 6 6 6 6 6 6 6 6 6 nan
nan 6 6 7 8 8 7 7 8 8 10 10 4 4 6 7 9 10 8 6 8 9 8 6 5 6 8 8 7 6 6 6 5 5 6 5 6 6 6 7 7 7 8 8 8 9 9 8 8 8 8 7 8 9 12 13 10 9 9 8 7 6 6 5 4 4 3 3 3 4 4 4 5 5 6 6 7 7 6 6 7 7 7 7 7 7 7 7 7 7 6 6 6 6 6 6 6 6 6 6 6 6 nan
nan 6 6 6 7 7 7 7 7 7 8 9 7 6 6 6 7 7 6 6 6 6 6 5 5 6 7 7 7 7 7 7 7 6 6 5 5 5 5 6 7 7 8 8 9 9 8 8 7 7 7 7 8 9 12 12 10 9 8 7 5 4 4 3 3 3 4 4 4 4 4 4 5 5 6 6 7 7 6 6 6 6 7 7 7 7 7 7 6 6 6 6 6 6 6 6 6 6 6 6 6 6 nan
nan 6 6 6 7 7 7 7 7 7 7 7 8 7 7 6 7 7 6 6 6 6 5 5 5 5 6 7 6 7 7 8 8 7 7 6 5 4 4 5 6 7 8 9 9 9 8 7 7 7 7 7 7 9 11 11 10 9 8 7 5 4 3 3 3 4 4 4 4 3 4 4 4 5 6 6 6 6 6 6 6 6 7 7 7 7 7 6 6 6 6 6 6 6 6 6 6 6 6 6 6 6 nan
nan 7 6 6 7 7 7 7 7 7 6 7 8 8 8 7 6 7 6 6 6 6 5 5 5 5 5 6 6 6 7 9 9 8 9 9 8 6 4 5 6 7 8 9 9 9 8 7 7 7 7 7 7 8 11 11 10 8 8 8 8 7 6 5 5 5 5 4 4 3 3 4 4 5 6 6 6 6 6 6 6 6 7 7 7 7 6 6 6 6 6 6 6 6 7 7 7 7 7 6 6 6 nan
nan 7 7 7 7 7 7 7 7 7 7 7 7 7 8 7 7 6 6 6 6 6 6 6 5 5 6 6 6 6 7 9 9 10 10 11 11 10 7 6 6 7 7 9 9 9 7 7 7 7 7 7 7 8 11 12 9 8 7 7 9 10 10 8 7 6 5 4 4 3 3 4 4 5 5 6 6 6 6 6 6 6 6 7 7 7 6 6 6 6 6 6 6 7 7 7 7 7 7 7 6 6 nan
nan 6 7 7 7 7 7 7 6 7 7 7 7 7 7 8 7 7 6 6 7 7 7 6 7 6 6 7 7 6 7 8 9 9 10 11 11 12 11 8 7 6 6 8 9 8 7 7 7 7 7 7 7 7 9 11 10 9 7 7 9 12 14 13 10 7 5 4 4 3 3 4 4 4 5 5 6 6 6 6 6 6 6 6 6 6 6 6 6 6 6 6 6 6 6 7 7 8 7 7 6 6 nan
nan 7 7 7 7 7 7 7 7 7 7 7 7 6 7 8 7 7 6 7 7 7 7 7 7 7 7 7 7 7 7 8 8 8 8 9 10 11 12 10 7 6 6 9 9 8 7 6 6 7 7 7 7 7 8 11 12 11 9 8 10 13 17 17 13 9 6 5 4 4 3 4 4 4 5 5 5 6 6 6 6 6 6 6 6 6 6 6 6 6 6 6 6 6 6 7 7 8 7 7 6 6 nan
nan 6 7 8 7 7 6 7 7 8 8 7 6 6 6 7 7 7 7 7 7 7 7 7 7 7 7 6 6 7 8 8 8 8 7 7 8 9 11 11 9 6 6 8 9 9 7 6 6 6 7 7 6 7 7 9 12 13 12 10 11 15 18 17 13 10 8 6 5 4 3 4 4 4 5 5 5 5 6 6 6 6 6 6 6 6 6 6 6 6 6 6 6 6 6 7 7 7 7 6 6 6 nan
nan 6 7 8 7 7 7 7 7 7 8 7 6 6 7 7 7 7 7 7 7 7 7 7 7 7 7 7 7 7 9 9 8 8 7 6 7 8 9 10 9 7 5 7 9 9 8 8 6 5 6 7 7 6 7 8 11 14 14 13 13 14 15 14 12 10 9 8 6 4 4 4 4 4 5 5 5 5 6 6 5 5 6 6 6 6 6 5 5 5 6 6 6 6 6 6 6 6 6 6 5 5 nan
nan 7 7 7 7 7 7 7 7 7 8 8 7 7 8 8 7 7 7 6 7 8 7 7 7 7 7 7 7 8 10 10 8 7 7 6 7 7 8 9 9 7 6 7 9 10 8 8 7 7 7 7 6 6 6 7 9 13 16 15 12 12 12 11 11 11 11 9 6 5 4 4 4 4 5 5 5 6 6 6 6 6 6 6 6 5 5 5 5 5 6 6 6 6 6 6 6 6 6 5 5 5 nan
nan 7 7 7 7 6 7 7 6 7 8 8 7 7 7 8 8 7 7 7 7 7 7 7 7 8 8 7 7 8 9 9 8 8 7 6 6 6 8 8 8 7 8 8 9 9 9 9 8 7 7 7 6 5 6 6 8 10 14 15 13 11 9 9 10 11 11 10 7 5 4 4 4 5 5 5 5 6 6 6 6 6 6 6 5 5 5 5 5 6 6 6 6 6 6 6 6 6 6 5 5 5 nan
nan 7 8 7 7 7 7 7 6 7 8 8 8 7 7 7 8 8 7 7 8 8 7 7 7 8 8 9 8 8 7 8 9 10 8 5 5 6 7 7 7 8 8 8 9 9 10 9 8 7 7 7 6 5 5 6 6 8 11 13 13 11 9 8 8 9 11 11 9 7 5 5 5 5 5 5 6 6 6 6 6 6 6 6 5 5 5 5 5 5 5 6 6 6 6 6 6 6 5 5 5 5 nan
nan 7 7 7 7 8 7 7 7 7 8 8 8 8 7 7 7 8 8 7 8 8 8 8 7 8 8 9 9 7 5 7 9 11 10 6 5 6 6 6 7 9 9 8 8 10 11 9 8 7 7 7 6 6 5 5 6 7 9 12 12 13 11 7 7 7 9 10 10 9 7 6 5 5 5 5 6 6 6 6 6 6 6 6 5 5 5 5 5 5 5 5 6 6 6 6 6 6 5 5 5 5 nan
nan 7 7 7 7 8 7 7 7 7 7 8 9 9 8 6 7 8 8 8 8 8 9 8 8 7 7 8 8 6 5 6 8 10 9 7 6 6 6 6 7 9 8 8 9 11 11 9 8 8 8 7 6 6 5 5 6 6 7 9 11 12 12 10 8 8 8 9 10 11 10 8 6 6 5 6 6 7 6 6 6 6 6 6 5 5 5 5 5 5 5 5 5 5 5 6 6 5 5 5 5 5 nan
nan 7 7 8 7 7 7 8 8 9 8 7 8 9 8 6 7 7 8 8 8 8 9 9 9 8 7 6 7 6 5 6 7 7 7 7 7 7 6 7 7 9 8 8 9 11 11 10 8 8 7 6 7 6 5 6 7 6 6 7 8 9 10 11 12 12 10 10 10 11 12 11 9 7 6 6 7 7 7 6 6 6 6 6 6 5 5 5 5 5 5 5 5 5 5 5 5 5 5 5 5 5 nan
nan 8 7 8 8 8 7 8 10 10 9 7 7 8 8 7 7 7 8 8 8 8 9 9 10 10 8 7 7 7 6 6 6 6 6 6 6 7 6 7 7 8 8 8 9 10 11 11 9 8 7 6 7 6 6 7 7 6 6 6 7 7 8 9 10 11 13 13 12 12 12 12 12 10 8 7 7 7 7 6 6 6 6 6 6 5 5 5 5 5 5 5 5 5 5 5 5 5 5 5 5 5 nan
nan 8 8 8 9 8 8 10 11 10 9 8 8 8 8 7 7 7 8 8 8 8 8 8 8 8 7 7 8 9 7 7 7 6 6 7 7 6 7 7 7 7 8 7 8 8 10 11 11 9 8 7 6 6 7 8 7 6 5 6 6 6 7 8 8 8 10 13 14 15 12 12 13 13 11 9 8 8 7 7 6 6 6 6 6 6 6 6 5 5 5 5 5 5 5 5 5 5 5 5 5 5 nan
nan 8 8 8 9 9 10 11 11 9 8 8 8 9 9 8 7 7 7 8 7 7 7 7 6 6 6 7 7 8 7 8 8 7 7 8 7 6 6 7 7 7 9 8 7 7 8 10 11 10 9 7 7 7 7 8 7 7 6 6 6 6 6 7 7 6 7 9 12 15 14 12 12 13 13 12 10 9 8 7 7 7 6 6 6 6 6 6 6 6 5 5 5 5 5 4 5 4 4 4 5 5 nan
nan 6 7 7 8 9 11 11 10 8 8 8 8 9 9 9 8 8 8 7 6 6 7 7 5 5 6 7 8 7 6 7 8 8 7 7 7 6 7 7 7 7 9 9 8 7 7 8 10 10 8 8 9 8 7 7 7 6 6 6 6 6 6 7 6 5 5 7 9 12 15 14 12 13 14 14 13 11 10 9 8 7 7 7 6 7 7 7 6 6 6 6 6 5 5 5 4 4 4 4 4 4 nan
nan 5 6 6 7 9 11 10 9 8 8 8 8 8 8 8 8 9 9 8 6 6 7 8 7 6 7 7 8 7 6 5 7 8 8 7 7 6 7 7 7 7 8 9 9 8 8 7 8 9 9 10 11 10 8 7 7 6 6 7 6 7 7 6 5 5 6 7 7 9 14 16 14 13 14 14 13 13 11 11 11 10 8 7 7 7 7 7 7 7 7 6 6 6 5 5 5 5 5 4 4 4 nan
nan 6 6 6 7 8 10 10 8 8 7 7 8 8 7 7 8 9 9 9 7 6 6 8 8 8 7 7 8 7 7 5 5 7 8 7 7 6 7 8 8 7 8 9 9 8 9 8 8 9 10 11 11 10 8 7 7 7 7 7 7 8 7 6 5 6 7 7 7 7 10 15 17 16 14 13 13 12 12 12 13 12 10 8 7 7 7 7 7 7 7 7 7 7 6 6 5 5 5 5 5 4 nan
nan 7 7 7 7 7 9 9 8 8 8 8 8 8 7 8 8 9 8 9 8 7 6 8 9 9 8 7 7 8 7 7 6 6 7 8 7 6 7 8 8 8 8 8 8 9 9 9 10 9 10 10 11 10 9 8 7 7 7 7 8 9 8 7 6 6 7 7 7 7 7 11 16 19 18 15 14 13 12 12 14 14 12 10 8 7 7 7 7 7 7 7 7 7 7 6 6 6 6 6 5 5 nan
nan 7 7 8 8 7 8 8 7 7 8 8 8 8 7 8 8 8 8 8 8 8 7 7 8 9 8 8 8 9 9 9 9 8 7 7 7 7 6 8 9 9 9 9 8 9 9 9 10 10 9 9 10 11 12 9 8 6 7 7 8 9 9 7 7 7 7 6 7 8 7 7 10 15 18 18 17 16 14 13 14 15 14 11 9 8 7 7 7 7 7 7 7 7 7 7 7 7 6 6 5 5 nan
nan 7 7 7 8 8 8 8 7 7 7 8 8 7 7 8 8 8 8 7 8 8 7 7 7 7 7 7 9 11 11 11 11 10 8 7 8 7 6 7 8 9 9 9 8 8 9 10 10 9 8 9 9 10 12 12 9 8 7 7 7 9 9 8 8 8 7 7 7 8 8 7 7 8 12 14 14 16 17 16 14 14 14 13 11 9 8 8 7 7 7 7 7 7 7 7 7 7 7 6 6 6 nan
nan 7 8 8 7 7 8 7 6 6 7 7 7 7 6 7 8 8 8 7 8 9 9 8 7 6 7 6 7 10 13 13 12 10 7 7 8 8 8 8 8 9 9 8 8 7 8 10 10 9 8 8 9 10 11 13 11 10 8 7 7 9 9 9 8 8 8 7 8 8 8 8 7 7 8 10 10 11 14 17 16 14 13 13 13 12 10 9 9 8 7 7 7 7 7 7 7 7 7 7 6 6 nan
nan 6 8 9 8 7 7 6 5 5 6 6 7 7 7 6 7 7 7 6 7 9 11 10 8 7 7 6 5 7 11 13 12 10 7 4 5 7 10 9 9 8 8 8 7 7 8 9 9 8 8 9 9 9 10 12 12 11 9 8 8 8 9 8 8 8 8 8 8 8 7 7 7 7 7 8 8 8 10 14 17 16 13 13 13 14 11 10 11 10 9 7 7 7 6 7 7 7 7 7 7 7 nan
nan 6 7 9 9 7 7 7 5 5 6 6 7 8 9 8 7 7 6 5 6 8 11 12 11 8 7 5 5 6 8 10 11 10 6 4 3 3 5 8 8 8 8 9 8 8 8 8 8 8 8 8 8 9 10 11 11 10 10 10 9 8 9 8 8 8 8 9 8 8 7 6 6 7 7 7 7 7 8 9 12 15 17 16 15 15 12 9 11 11 11 9 8 7 7 7 7 7 7 7 7 7 nan
nan 6 6 8 9 8 8 7 6 6 6 6 7 8 9 9 8 9 8 6 4 4 8 10 12 12 9 6 7 8 9 7 7 5 4 5 5 4 3 6 7 9 10 11 11 10 9 7 7 8 7 8 8 8 9 9 10 9 10 10 10 9 9 9 8 8 8 9 8 8 7 6 6 6 7 7 7 7 7 7 9 11 14 17 18 15 15 14 12 11 11 10 9 8 8 7 7 7 7 8 7 7 nan
nan 7 6 7 8 8 9 8 7 7 7 8 8 8 9 10 9 9 11 10 5 2 3 6 9 13 12 9 9 11 11 7 5 1 2 7 10 11 9 5 5 7 10 11 11 11 11 8 8 8 7 7 7 7 7 8 8 8 9 10 9 9 9 9 8 9 9 9 8 8 7 6 6 6 7 7 7 7 7 7 7 8 9 11 13 13 14 16 18 16 13 11 11 10 9 9 8 7 7 7 7 7 nan
nan 6 7 6 7 8 9 9 7 7 7 8 10 11 12 11 9 8 12 14 10 6 1 -0 2 5 10 12 11 11 12 10 7 3 2 6 9 12 11 7 5 5 8 9 10 9 10 10 10 10 8 6 5 5 6 6 7 7 8 9 9 9 10 10 10 9 9 8 8 9 8 7 6 7 7 7 7 6 6 6 6 6 7 9 10 10 11 12 14 17 17 14 11 9 10 10 10 8 8 7 7 8 nan
nan 6 5 5 7 7 9 9 9 7 6 7 8 9 11 11 8 7 8 10 11 10 5 -1 -3 1 6 10 11 10 12 13 9 7 6 7 5 3 7 10 8 9 8 8 8 9 10 13 12 13 12 10 8 6 5 5 6 7 9 8 8 9 10 11 11 10 9 8 8 8 8 8 8 8 8 8 7 6 6 6 6 6 7 8 9 9 10 11 12 12 13 15 14 11 10 10 10 9 8 8 8 8 nan
nan 7 5 3 5 6 8 9 9 9 7 7 8 9 9 9 8 6 5 6 7 7 5 5 5 6 6 7 8 8 10 12 11 9 9 8 4 0 3 8 8 9 9 8 7 9 10 13 13 13 13 15 14 11 7 5 5 7 8 7 7 8 9 10 11 11 9 9 8 8 7 7 8 8 8 8 7 7 6 6 6 6 6 7 7 8 10 12 12 10 9 11 13 13 14 11 9 9 9 9 9 9 nan
nan 7 6 4 3 4 7 9 8 9 8 7 8 9 11 11 9 8 8 6 3 -0 2 8 10 10 9 8 8 7 8 10 11 11 9 7 6 3 3 6 5 3 5 9 9 9 8 11 12 11 9 13 18 17 12 10 8 8 7 7 6 6 6 8 9 9 9 10 10 10 8 7 8 8 7 7 7 7 7 6 6 6 6 7 8 9 11 12 9 8 8 9 10 10 13 13 10 9 9 10 10 11 nan
nan 7 6 6 4 3 5 8 8 8 8 7 8 9 10 11 11 12 12 8 3 -0 4 9 11 11 12 11 9 7 5 7 10 12 10 6 6 5 6 6 5 2 3 7 9 8 10 11 11 11 7 7 14 15 14 14 13 12 10 10 8 7 6 6 7 7 8 9 10 11 10 9 9 8 7 7 8 7 7 7 7 7 7 7 8 8 9 10 9 8 8 9 9 9 10 13 11 10 10 11 12 13 nan
nan 9 7 7 6 4 3 5 7 7 7 7 8 8 8 8 10 12 13 10 7 7 10 14 14 14 12 11 11 9 6 6 8 11 11 10 9 7 7 8 9 10 8 7 9 10 11 10 8 9 8 6 9 10 12 13 15 14 14 12 12 11 10 7 6 7 8 9 9 9 10 10 9 9 9 8 8 8 7 7 8 8 8 7 7 8 9 9 9 8 8 8 9 10 11 11 11 11 12 13 14 15 nan
nan 8 9 9 8 6 3 4 6 6 7 7 7 8 8 8 8 8 10 10 9 9 10 14 16 15 12 12 10 10 8 7 7 8 9 11 12 11 8 8 10 13 14 12 12 12 9 7 7 6 7 6 7 8 11 12 13 14 13 12 12 13 13 10 8 7 7 8 9 9 9 10 9 9 10 9 9 9 8 8 8 9 8 8 7 8 9 10 9 7 7 8 9 11 11 11 11 12 12 13 15 15 nan
nan 7 8 9 9 8 6 4 4 4 5 5 5 7 10 9 7 5 5 5 6 8 11 13 14 14 13 11 9 9 10 9 8 7 7 9 12 13 12 8 6 7 11 12 12 10 7 5 7 6 6 5 5 4 6 10 11 11 10 11 11 12 13 12 11 9 9 9 9 9 8 9 9 9 9 9 9 10 9 9 9 9 8 7 8 8 10 11 10 9 9 9 8 8 10 12 12 12 12 12 12 12 nan
nan 6 8 9 10 8 7 5 3 1 3 7 9 11 11 9 7 6 6 6 5 7 13 12 9 10 12 11 9 9 11 12 11 9 7 7 9 12 13 11 7 5 3 5 8 10 12 12 10 8 5 5 5 4 2 5 8 10 10 10 11 12 12 13 13 12 12 10 10 10 9 8 9 9 9 9 9 10 10 10 10 9 8 7 8 9 9 10 11 11 11 10 10 10 11 13 13 12 11 10 9 8 nan
nan nan nan nan nan nan nan nan nan nan nan nan nan nan nan nan nan nan nan nan nan nan nan nan nan nan nan nan nan nan nan nan nan nan nan nan nan nan nan nan nan nan nan nan nan nan nan nan nan nan nan nan nan nan nan nan nan nan nan nan nan nan nan nan nan nan nan nan nan nan nan nan nan nan nan nan nan nan nan nan nan nan nan nan nan nan nan nan nan nan nan nan nan nan nan nan nan nan nan nan nan nan nan
CAPE
6 0 nan nan nan nan nan 7 22 22 30 10 1 1 1 0 0 nan nan nan nan nan nan nan nan nan 1 6 12 12 18 28 40 40 28 15 15 1 nan nan nan nan nan nan nan nan nan nan nan nan nan nan nan nan nan nan nan nan nan nan nan nan nan 70 61 61 49 50 38 38 20 6 5 5 32 72 72 179 558 732 732 605 546 610 735 735 819 841 918 918 900 883 901 901 846 838 838 923 1028 1166 1166 1145 1123
8 4 0 1 3 3 6 23 32 32 35 18 2 2 nan nan nan nan nan nan nan nan nan nan nan nan 4 9 17 17 24 30 33 33 23 4 4 nan nan nan nan nan nan nan nan nan nan nan nan nan nan nan nan nan nan nan nan nan nan nan nan nan nan 10 18 18 15 26 19 19 26 16 11 11 30 63 63 155 490 654 654 602 470 434 498 498 588 592 643 643 634 618 606 606 590 551 551 655 719 858 858 924 977
10 12 8 8 12 12 27 39 49 49 40 23 10 10 3 nan nan nan nan nan nan nan nan nan nan nan 5 14 22 22 25 33 26 26 13 0 0 nan nan nan nan nan nan nan nan nan nan nan nan nan nan nan nan nan nan nan nan nan nan nan nan nan nan 1 3 3 7 17 23 23 24 20 29 29 37 71 71 130 395 588 588 579 471 362 325 325 357 377 384 384 337 354 373 373 371 343 343 358 420 518 518 614 723
13 15 14 23 34 34 45 59 59 59 45 32 14 14 4 nan nan nan nan nan nan nan nan nan nan nan 5 13 24 24 32 25 15 15 1 nan nan nan nan nan nan nan nan nan nan nan nan nan nan nan nan nan nan nan nan nan nan nan nan nan nan nan nan nan 4 4 12 19 24 24 24 23 35 35 56 77 77 145 329 460 460 521 424 301 228 228 202 210 204 204 212 225 236 236 211 198 198 204 224 279 279 365 418
17 14 18 36 61 61 66 65 60 60 44 28 15 15 4 0 0 nan nan nan nan nan nan nan nan nan 3 17 28 28 25 19 6 6 nan nan nan nan nan nan nan nan nan nan nan nan nan nan nan nan nan nan nan nan nan nan nan nan nan nan nan nan 5 10 13 13 19 24 26 26 20 32 56 56 81 84 84 141 293 365 365 359 316 239 140 140 110 115 106 106 134 124 129 129 99 114 114 105 110 146 146 195 245
29 20 29 51 78 78 95 73 62 62 41 24 12 12 4 0 0 nan nan nan nan nan nan nan 0 0 7 19 24 24 21 14 0 0 nan nan nan nan nan nan nan nan nan nan nan nan nan nan nan nan nan nan nan nan nan nan nan nan nan nan nan nan 10 17 23 23 32 37 30 30 25 61 131 131 169 128 128 95 204 214 214 221 188 121 90 90 50 42 59 59 64 62 57 57 45 40 40 40 41 52 52 77 113
47 35 41 67 94 94 103 76 58 58 43 25 15 15 7 1 1 nan nan nan nan nan nan 1 5 5 19 24 29 29 22 11 nan nan nan nan nan nan nan nan nan nan nan nan nan nan nan nan nan nan nan nan nan nan nan nan nan nan nan nan nan 4 24 30 36 36 61 57 50 50 57 194 299 299 352 230 230 77 96 99 99 87 73 58 55 55 32 19 26 26 35 37 38 38 25 18 18 17 19 19 19 22 39
62 50 55 76 111 111 113 94 65 65 50 30 15 15 5 nan nan nan nan nan nan nan 0 3 14 14 31 37 34 34 18 5 nan nan nan nan nan nan nan nan nan nan nan nan nan nan nan nan nan nan nan nan nan nan nan nan nan nan nan nan nan nan 20 38 53 53 67 56 66 66 121 327 362 362 311 190 190 70 54 50 50 56 41 36 30 30 23 9 8 8 10 11 15 15 14 10 10 13 17 19 19 19 21
65 61 66 85 112 112 130 105 72 72 50 36 20 20 3 nan nan nan nan nan nan nan 1 9 25 25 44 46 33 33 17 1 nan nan nan nan nan nan nan nan nan nan nan nan nan nan nan nan nan nan nan nan nan nan nan nan nan nan nan nan nan nan 22 55 65 65 69 65 89 89 202 359 323 323 212 106 106 71 40 32 32 25 22 19 14 14 11 7 3 3 0 0 1 1 2 2 2 6 6 6 6 8 15
69 68 75 88 113 113 131 123 83 83 52 40 17 17 3 nan nan nan nan nan nan nan 3 13 35 35 53 49 31 31 16 nan nan nan nan nan nan nan nan nan nan nan nan nan nan nan nan nan nan nan nan nan nan nan nan nan nan nan nan nan nan nan 37 66 72 72 102 197 277 277 289 321 239 239 118 81 81 63 35 19 19 11 9 6 3 3 2 0 0 0 nan nan 0 0 nan nan nan nan nan nan nan nan 2
86 79 83 100 121 121 143 125 95 95 61 42 22 22 5 nan nan nan nan nan nan nan 5 24 44 44 63 49 31 31 10 nan nan nan nan nan nan nan nan nan nan nan nan nan nan nan nan nan nan nan nan nan nan nan nan nan nan nan nan nan nan 31 63 75 83 83 154 270 357 357 333 239 120 120 76 64 64 49 31 16 16 7 5 2 0 0 nan nan nan nan nan nan nan nan 0 0 0 nan nan nan nan nan 1
101 93 99 105 131 131 156 137 98 98 70 51 28 28 9 nan nan nan nan nan nan 2 12 30 57 57 63 49 31 31 8 nan nan nan nan nan nan nan nan nan nan nan nan nan nan nan nan nan nan nan nan nan nan nan nan nan nan nan nan nan nan 44 80 83 79 79 171 259 259 259 226 124 64 64 48 42 42 35 22 11 11 9 6 2 0 0 0 nan nan nan nan nan nan nan 1 0 0 nan nan nan nan nan 0
104 109 108 115 139 139 177 141 102 102 76 53 35 35 14 0 0 nan nan 1 1 7 21 42 61 61 62 47 27 27 4 nan nan nan nan nan nan nan nan nan nan nan nan nan nan nan nan nan nan nan nan nan nan nan nan nan nan nan nan 43 43 62 83 77 71 71 127 116 102 102 82 60 40 40 27 24 24 16 9 7 7 6 2 1 0 0 nan 0 nan nan 0 1 1 1 1 0 0 0 0 0 0 nan nan
111 115 107 127 161 161 200 136 104 104 78 61 40 40 19 3 3 nan nan 3 3 16 37 55 66 66 56 45 21 21 1 nan nan nan nan nan nan nan nan nan nan nan nan nan nan nan nan nan nan nan nan nan nan nan nan nan nan nan nan 57 57 83 83 75 76 76 110 89 68 68 51 35 33 33 20 9 9 4 2 1 1 nan nan nan nan nan nan 0 0 0 0 1 3 3 2 1 1 1 0 1 1 0 0
111 88 72 114 166 166 207 144 100 100 86 68 52 52 29 6 6 nan nan 7 7 24 46 60 60 60 50 44 19 19 0 nan nan nan nan nan nan nan nan nan nan nan nan nan nan nan nan nan nan nan nan nan nan nan nan nan nan nan 29 80 80 102 98 72 74 74 100 76 46 46 31 21 21 21 10 1 1 nan nan nan nan nan nan nan nan nan nan nan 0 0 0 2 3 3 3 3 3 2 1 2 2 2 1
38 29 49 111 155 155 213 149 108 108 89 77 63 63 40 13 13 1 0 6 6 23 44 56 56 56 55 44 22 22 8 1 nan nan nan nan nan nan nan nan nan nan nan nan nan nan nan nan nan nan nan nan nan nan nan nan nan nan 149 146 146 147 118 86 92 92 93 68 40 40 21 11 6 6 1 nan nan nan nan nan nan nan nan nan nan nan nan nan 0 0 1 2 3 3 3 3 3 3 2 2 2 2 1
0 0 20 112 145 145 174 138 106 106 98 85 70 70 49 22 22 6 2 3 3 13 34 49 52 52 51 45 31 31 nan nan nan nan nan nan nan nan nan nan nan nan nan nan nan nan nan nan nan nan nan nan nan nan nan nan nan 9 288 212 212 175 140 105 114 114 80 53 34 34 13 7 2 2 nan nan nan nan nan nan nan nan nan nan nan nan nan nan 0 0 0 1 2 2 3 3 3 2 2 2 2 2 3
nan nan 77 102 136 136 147 127 115 115 108 98 83 83 59 35 35 14 3 1 1 6 22 39 46 46 50 44 9 9 nan nan nan nan nan nan nan nan nan nan nan nan nan nan nan nan nan nan nan nan nan nan nan nan nan nan nan 68 320 242 242 224 199 139 126 126 84 45 22 22 9 4 1 1 nan nan nan nan nan nan nan nan nan nan nan nan nan nan 0 0 0 1 2 2 3 2 2 2 2 1 1 2 3
nan 20 65 102 124 124 127 119 119 119 123 109 94 94 76 54 54 27 8 0 0 2 9 24 32 32 44 39 nan nan nan nan nan nan nan nan nan nan nan nan nan nan nan nan nan nan nan nan nan nan nan nan nan nan nan nan nan 94 303 275 275 253 226 159 124 124 81 41 20 20 7 3 0 0 nan nan nan nan nan nan nan nan nan nan nan nan nan nan 0 0 0 1 1 1 2 1 1 1 1 1 1 2 1
nan 0 54 83 98 98 99 107 119 119 133 131 94 94 84 76 76 64 48 14 14 3 1 3 11 11 8 nan nan nan nan nan nan nan nan nan nan nan nan nan nan nan nan nan nan nan nan nan nan nan nan nan nan nan nan nan nan 234 376 317 317 305 247 170 122 122 80 44 17 17 3 nan nan nan nan nan nan nan nan nan nan nan nan nan nan nan nan 0 1 1 1 1 1 1 1 1 1 1 1 2 2 2 2
nan nan nan 27 47 47 45 40 74 74 84 120 5 5 nan 12 12 57 39 nan nan nan 6 nan nan nan nan nan nan nan nan nan nan nan nan nan nan nan nan nan nan nan nan nan nan nan nan nan nan nan nan nan nan nan nan 23 23 220 306 302 302 290 238 172 120 120 78 39 10 10 0 nan nan nan nan nan nan nan nan nan nan nan nan nan nan nan nan 0 0 0 1 1 1 1 0 1 1 0 0 1 1 1 2
nan nan nan nan nan nan nan nan 3 3 10 97 nan nan nan nan nan nan 0 nan nan nan nan nan nan nan nan nan nan nan nan nan nan nan nan nan nan nan nan nan nan nan nan nan nan nan nan nan nan nan nan nan nan nan nan 125 125 188 284 277 277 267 222 166 113 113 74 33 4 4 nan nan nan nan nan nan nan nan nan nan nan nan nan nan nan nan nan 0 1 1 0 1 0 0 0 1 1 nan 0 1 1 1 3
nan nan nan nan nan nan nan nan nan nan nan 30 nan nan nan nan nan nan nan nan nan nan nan nan nan nan nan nan nan nan nan nan nan nan nan nan nan nan nan nan nan nan nan nan nan nan nan nan nan nan nan nan nan nan nan 104 104 174 283 299 299 290 217 169 115 115 63 26 1 1 nan nan nan nan nan nan nan nan nan nan nan nan nan nan nan nan nan 0 1 1 1 1 0 0 0 0 0 0 0 2 2 1 4
nan nan nan nan nan nan nan nan nan nan nan nan nan nan nan nan nan nan nan nan nan nan nan nan nan nan nan nan nan nan nan nan nan nan nan nan nan nan nan nan nan nan nan nan nan nan nan nan nan nan nan nan nan nan nan 90 90 157 262 345 345 321 242 170 118 118 65 19 1 1 nan nan nan nan nan nan nan nan nan nan nan nan nan nan nan nan nan 0 1 1 1 1 0 0 0 0 0 0 1 2 2 3 4
nan nan nan nan nan nan nan nan nan nan nan nan nan nan nan nan nan nan nan nan nan nan nan nan nan nan nan nan nan nan nan nan nan nan nan nan nan nan nan nan nan nan nan nan nan nan nan nan nan nan nan nan nan nan nan 36 36 121 211 401 401 344 246 163 108 108 62 17 0 0 nan nan nan nan nan nan nan nan nan nan nan nan nan nan nan nan nan 1 1 1 1 1 0 0 nan nan nan 0 0 2 2 3 4
nan nan nan nan nan nan nan nan nan nan nan nan nan nan nan nan nan nan nan nan nan nan nan nan nan nan nan nan nan nan nan nan nan nan nan nan nan nan nan nan nan nan nan nan nan nan nan nan nan nan nan nan nan nan nan 10 10 72 129 239 239 301 234 161 106 106 55 12 nan nan nan nan nan nan nan nan nan nan nan nan nan nan nan nan nan nan 0 1 1 1 1 0 nan nan nan nan nan 1 2 2 2 3 3
nan nan nan nan nan nan nan nan nan nan nan nan nan nan nan nan nan nan nan nan nan nan nan nan nan nan nan nan nan nan nan nan nan nan nan nan nan nan nan nan nan nan nan nan nan nan nan nan nan nan nan nan nan nan nan nan nan 31 74 148 148 205 216 154 102 102 57 12 nan nan nan nan nan nan nan nan nan nan nan nan nan nan nan nan nan nan 0 0 1 1 0 0 nan nan nan 0 0 2 2 3 3 3 2
nan nan nan nan nan nan nan nan nan nan nan nan nan nan nan nan nan nan nan nan nan nan nan nan nan nan nan nan nan nan nan nan nan nan nan nan nan nan nan nan nan nan nan nan nan nan nan nan nan nan nan nan nan nan nan nan nan 7 38 84 84 151 199 157 87 87 50 10 nan nan nan nan nan nan nan nan nan nan nan nan nan nan nan nan nan nan nan 0 0 0 0 0 0 0 nan 0 0 3 4 4 4 3 2
nan nan nan nan nan nan nan nan nan nan nan nan nan nan nan nan nan nan nan nan nan nan nan nan nan nan nan nan nan nan nan nan nan nan nan nan nan nan nan nan nan nan nan nan nan nan nan nan nan nan nan nan nan nan nan nan nan nan 8 39 39 102 171 193 101 101 42 11 nan nan nan nan nan nan nan nan nan nan nan nan nan nan nan nan nan nan 0 0 0 0 0 nan 0 0 0 1 1 3 4 3 3 3 1
nan nan nan nan nan nan nan nan nan nan nan nan nan nan nan nan nan nan nan nan nan nan nan nan nan nan nan nan nan nan nan nan nan nan nan nan nan nan nan nan nan nan nan nan nan nan nan nan nan nan nan nan nan nan nan nan nan nan nan 7 7 52 132 193 120 120 56 11 0 0 nan nan nan nan nan nan nan nan nan nan nan nan nan nan 0 0 0 0 nan nan nan nan nan nan 0 1 1 1 3 2 2 3 1
nan nan nan nan nan nan nan nan nan nan nan nan nan nan nan nan nan nan nan nan nan nan nan nan nan nan nan nan nan nan nan nan nan nan nan nan nan nan nan nan nan nan nan nan nan nan nan nan nan nan nan nan nan nan nan nan nan nan nan nan nan 14 75 132 142 142 93 18 0 0 nan nan nan nan nan nan nan nan nan nan nan nan nan 0 0 0 0 nan nan nan nan nan nan nan 0 0 0 2 3 2 2 2 1
nan nan nan nan nan nan nan nan nan nan nan nan nan nan nan nan nan nan nan nan nan nan nan nan nan nan nan nan nan nan nan nan nan nan nan nan nan nan nan nan nan nan nan nan nan nan nan nan nan nan nan nan nan nan nan nan nan nan nan nan nan 0 22 74 118 118 84 23 1 1 1 0 nan nan nan nan nan nan nan nan nan nan 0 2 2 2 0 nan nan nan nan nan nan nan 0 0 0 1 2 2 2 1 1
nan nan nan nan nan nan nan nan nan nan nan nan nan nan nan nan nan nan nan nan nan nan nan nan nan nan nan nan nan nan nan nan nan nan nan nan nan nan nan nan nan nan nan nan nan nan nan nan nan nan nan nan nan nan nan nan nan nan nan nan nan nan 1 26 73 73 69 19 3 3 2 2 1 1 0 nan nan nan 0 0 0 0 1 2 3 3 1 0 nan nan nan nan nan nan 0 1 1 2 2 2 2 1 0
nan nan nan nan nan nan nan nan nan nan nan nan nan nan nan nan nan nan nan nan nan nan nan nan nan nan nan nan nan nan nan nan nan nan nan nan nan nan nan nan nan nan nan nan nan nan nan nan nan nan nan nan nan nan nan nan nan nan nan nan nan nan nan 3 26 26 56 22 4 4 3 2 2 2 1 1 1 1 0 1 1 1 1 2 3 3 2 1 0 0 nan 0 0 0 0 1 1 2 2 1 1 0 nan
nan nan nan nan nan nan nan nan nan nan nan nan nan nan nan nan nan nan nan nan nan nan nan nan nan nan nan nan nan nan nan nan nan nan nan nan nan nan nan nan nan nan nan nan nan nan nan nan nan nan nan nan nan nan nan nan nan nan nan nan nan nan nan nan 4 4 24 31 19 19 3 3 3 3 3 2 2 2 2 1 1 1 1 2 3 3 2 1 1 1 0 0 0 0 0 1 1 1 1 0 0 nan nan
nan nan nan nan nan nan nan nan nan nan nan nan nan nan nan nan nan nan nan nan nan nan nan nan nan nan nan nan nan nan nan nan nan nan nan nan nan nan nan nan nan nan nan nan nan nan nan nan nan nan nan nan nan nan nan nan nan nan nan nan nan nan nan nan nan nan 3 21 24 24 18 3 4 4 3 3 3 4 3 2 2 2 2 2 3 3 2 1 1 1 0 0 0 0 0 0 0 0 0 nan nan nan nan
nan nan nan nan nan nan nan nan nan nan nan nan nan nan nan nan nan nan nan nan nan nan nan nan nan nan nan nan nan nan nan nan nan nan nan nan nan nan nan nan nan nan nan nan nan nan nan nan nan nan nan nan nan nan nan nan nan nan nan nan nan nan nan nan nan nan nan 4 15 15 38 7 3 3 4 4 4 6 5 3 3 3 2 2 3 3 2 2 1 1 0 0 0 0 1 0 0 0 nan nan nan nan nan
nan nan nan nan nan nan nan nan nan nan nan nan nan nan nan nan nan nan nan nan nan nan nan nan nan nan nan nan nan nan nan nan nan nan nan nan nan nan nan nan nan nan nan nan nan nan nan nan nan nan nan nan nan nan nan nan nan nan nan nan nan nan nan nan nan nan nan nan 7 7 35 30 4 4 3 5 5 7 7 4 4 3 3 3 3 3 2 2 1 1 1 1 1 1 1 0 0 0 nan nan nan nan nan
nan nan nan nan nan nan nan nan nan nan nan nan nan nan nan nan nan nan nan nan nan nan nan nan nan nan nan nan nan nan nan nan nan nan nan nan nan nan nan nan nan nan nan nan nan nan nan nan nan nan nan nan nan nan nan nan nan nan nan nan nan nan nan nan nan nan nan nan nan nan 14 37 14 14 3 4 4 7 7 4 4 3 3 2 3 3 3 2 2 2 2 1 2 2 1 1 1 0 nan nan nan nan nan
nan nan nan nan nan nan nan nan nan nan nan nan nan nan nan nan nan nan nan nan nan nan nan nan nan nan nan nan nan nan nan nan nan nan nan nan nan nan nan nan nan nan nan nan nan nan nan nan nan nan nan nan nan nan nan nan nan nan nan nan nan nan nan nan nan nan nan nan nan nan 0 14 19 19 6 5 5 6 7 4 4 2 1 2 2 2 2 2 2 2 2 2 2 2 2 1 1 0 nan nan nan nan nan
nan nan nan nan nan nan nan nan nan nan nan nan nan nan nan nan nan nan nan nan nan nan nan nan nan nan nan nan nan nan nan nan nan nan nan nan nan nan nan nan nan nan nan nan nan nan nan nan nan nan nan nan nan nan nan nan nan nan nan nan nan nan nan nan nan nan nan nan nan nan nan 1 4 4 10 9 9 7 6 3 3 1 0 0 1 1 2 2 3 3 2 2 2 2 2 1 1 0 nan nan nan nan nan
nan nan nan nan nan nan nan nan nan nan nan nan nan nan nan nan nan nan nan nan nan nan nan nan nan nan nan nan nan nan nan nan nan nan nan nan nan nan nan nan nan nan nan nan nan nan nan nan nan nan nan nan nan nan nan nan nan nan nan nan nan nan nan nan nan nan nan nan nan nan nan nan 0 0 6 10 10 10 6 3 3 0 nan nan 0 0 1 1 2 2 2 2 2 2 2 2 2 1 0 nan nan nan nan
nan nan nan nan nan nan nan nan nan nan nan nan nan nan nan nan nan nan nan nan nan nan nan nan nan nan nan nan nan nan nan nan nan nan nan nan nan nan nan nan nan nan nan nan nan nan nan nan nan nan nan nan nan nan nan nan nan nan nan nan nan nan nan nan nan nan nan nan nan nan nan nan nan nan nan 0 0 2 1 0 0 nan nan nan nan nan 0 0 1 1 1 1 2 2 2 2 2 2 1 0 0 nan nan
nan nan nan nan nan nan nan nan nan nan nan nan nan nan nan nan nan nan nan nan nan nan nan nan nan nan nan nan nan nan nan nan nan nan nan nan nan nan nan nan nan nan nan nan nan nan nan nan nan nan nan nan nan nan nan nan nan nan nan nan nan nan nan nan nan nan nan nan nan nan nan nan nan nan nan nan nan 1 nan nan nan nan nan nan nan nan nan nan 0 0 0 0 0 0 1 2 2 1 1 0 0 nan nan
nan nan nan nan nan nan nan nan nan nan nan nan nan nan nan nan nan nan nan nan nan nan nan nan nan nan nan nan nan nan nan nan nan nan nan nan nan nan nan nan nan nan nan nan nan nan nan nan nan nan nan nan nan nan nan nan nan nan nan nan nan nan nan nan nan nan nan nan nan nan nan nan nan nan nan nan nan nan nan nan nan nan nan nan nan nan nan nan nan nan nan nan nan nan 0 0 0 2 1 0 0 nan nan
nan nan nan nan nan nan nan nan nan nan nan nan nan nan nan nan nan nan nan nan nan nan nan nan nan nan nan nan nan nan nan nan nan nan nan nan nan nan nan nan nan nan nan nan nan nan nan nan nan nan nan nan nan nan nan nan nan nan nan nan nan nan nan nan nan nan nan nan nan nan nan nan nan nan nan nan nan nan nan nan nan nan nan nan nan nan nan nan nan nan nan nan nan nan nan nan nan 1 1 nan nan nan nan
nan nan nan nan nan nan nan nan nan nan nan nan nan nan nan nan nan nan nan nan nan nan nan nan nan nan nan nan nan nan nan nan nan nan nan nan nan nan nan nan nan nan nan nan nan nan nan nan nan nan nan nan nan nan nan nan nan nan nan nan nan nan nan nan nan nan nan nan nan nan nan nan nan nan nan nan nan nan nan nan nan nan nan nan nan nan nan nan nan nan nan nan nan nan nan nan nan nan 0 nan nan nan nan
nan nan nan nan nan nan nan nan nan nan nan nan nan nan nan nan nan nan nan nan nan nan nan nan nan nan nan nan nan nan nan nan nan nan nan nan nan nan nan nan nan nan nan nan nan nan nan nan nan nan nan nan nan nan nan nan nan nan nan nan nan nan nan nan nan nan nan nan nan nan nan nan nan nan nan nan nan nan nan nan nan nan nan nan nan nan nan nan nan nan nan nan nan nan nan nan nan nan nan nan nan nan nan
nan nan nan nan nan nan nan nan nan nan nan nan nan nan nan nan nan nan nan nan nan nan nan nan nan nan nan nan nan nan nan nan nan nan nan nan nan nan nan nan nan nan nan nan nan nan nan nan nan nan nan nan nan nan nan nan nan nan nan nan nan nan nan nan nan nan nan nan nan nan nan nan nan nan nan nan nan nan nan nan nan nan nan nan nan nan nan nan nan nan nan nan nan nan nan nan nan nan nan nan nan nan nan
nan nan nan nan nan nan nan nan nan nan nan nan nan nan nan nan nan nan nan nan nan nan nan nan nan nan nan nan nan nan nan nan nan nan nan nan nan nan nan nan nan nan nan nan nan nan nan nan nan nan nan nan nan nan nan nan nan nan nan nan nan nan nan nan nan nan nan nan nan nan nan nan nan nan nan nan nan nan nan nan nan nan nan nan nan nan nan nan nan nan nan nan nan nan nan nan nan nan nan nan nan nan nan
nan nan nan nan nan nan nan nan nan nan nan nan nan nan nan nan nan nan nan nan nan nan nan nan nan nan nan nan nan nan nan nan nan nan nan nan nan nan nan nan nan nan nan nan nan nan nan nan nan nan nan nan nan nan nan nan nan nan nan nan nan nan nan nan nan nan nan nan nan nan nan nan nan nan nan nan nan nan nan nan nan nan nan nan nan nan nan nan nan nan nan nan nan nan nan nan nan nan nan nan nan nan nan
nan nan nan nan nan nan nan nan nan nan nan nan nan nan nan nan nan nan nan nan nan nan nan nan nan nan nan nan nan nan nan nan nan nan nan nan nan nan nan nan nan nan nan nan nan nan nan nan nan nan nan nan nan nan nan nan nan nan nan nan nan nan nan nan nan nan nan nan nan nan nan nan nan nan nan nan nan nan nan nan nan nan nan nan nan nan nan nan nan nan nan nan nan nan nan nan nan nan nan nan nan nan nan
nan nan nan nan nan nan nan nan nan nan nan nan nan nan nan nan nan nan nan nan nan nan nan nan 0 0 nan nan nan nan nan nan nan nan nan nan nan nan nan nan nan nan nan nan nan nan nan nan nan nan nan nan nan nan nan nan nan nan nan nan nan nan nan nan nan nan nan nan nan nan nan nan nan nan nan nan nan nan nan nan nan nan nan nan nan nan nan nan nan nan nan nan nan nan nan nan nan nan nan nan nan nan nan
nan nan nan nan nan nan nan nan nan nan nan nan nan nan nan nan nan nan nan nan nan nan nan nan nan nan nan nan nan nan nan nan nan nan nan nan nan nan nan nan nan nan nan nan nan nan nan nan nan nan nan nan nan nan nan nan nan nan nan nan nan nan nan nan nan nan nan nan nan nan nan nan nan nan nan nan nan nan nan nan nan nan nan nan nan nan nan nan nan nan nan nan nan nan nan nan nan nan nan nan nan nan nan
nan nan nan nan nan nan nan nan nan nan nan 1 nan nan nan nan nan nan nan nan nan nan nan nan nan nan nan nan nan nan nan nan nan nan nan nan nan nan nan nan nan nan nan nan nan nan nan nan nan nan nan nan nan nan nan nan nan nan nan nan nan nan nan nan nan nan nan nan nan nan nan nan nan nan nan nan nan nan nan nan nan nan nan nan nan nan nan nan nan nan nan nan nan nan nan nan nan nan nan nan nan nan nan
0 nan nan nan nan nan nan nan nan nan nan 3 3 3 15 0 0 nan nan nan nan nan 1 nan nan nan nan nan nan nan nan nan nan nan nan nan nan nan nan nan nan nan nan nan nan nan nan nan nan nan nan nan nan nan nan nan nan nan nan nan nan nan nan nan nan nan nan nan nan nan nan nan nan nan nan nan nan nan nan nan nan nan nan nan nan nan nan nan nan nan nan nan nan nan nan nan nan nan nan nan nan nan nan
9 nan nan nan nan nan nan nan nan nan nan nan 10 10 62 12 12 nan nan nan nan nan 0 nan nan nan nan nan nan nan nan nan nan nan nan nan nan nan nan nan nan nan nan nan nan nan nan nan nan nan nan nan nan nan nan nan nan nan nan nan nan nan nan nan nan nan nan nan nan nan nan nan nan nan nan nan nan nan nan nan nan nan nan nan nan nan nan nan nan nan nan nan nan nan nan nan nan nan nan nan nan nan 2
6 10 nan nan nan nan nan 0 nan nan nan nan 0 0 2 0 0 1 nan 0 0 nan nan nan nan nan nan nan nan nan nan nan nan nan nan nan nan nan nan nan nan nan nan nan nan nan nan nan nan nan nan nan nan nan nan nan nan nan nan nan nan nan nan nan nan nan nan nan nan nan nan nan nan nan nan nan nan nan nan nan nan nan nan nan nan nan nan nan nan nan nan nan nan nan nan nan nan nan nan nan nan 2 5
1 8 3 0 nan nan nan 1 1 1 nan nan nan nan nan 0 0 3 1 0 0 nan nan nan nan nan nan nan nan nan nan nan nan nan nan nan nan nan nan nan nan nan nan nan nan nan nan nan nan nan nan nan nan nan nan nan nan nan nan nan nan nan nan nan nan nan nan nan nan nan nan nan nan nan nan nan nan nan nan nan nan nan nan nan nan nan nan nan nan nan nan nan nan nan nan nan nan nan nan nan nan nan nan
0 11 10 nan nan nan 1 2 1 1 0 nan nan nan nan nan nan nan nan nan nan nan nan nan nan nan nan nan nan nan nan nan nan nan nan nan nan nan nan nan nan nan nan nan nan nan nan nan nan nan nan nan nan nan nan nan nan nan nan nan nan nan nan nan nan nan nan nan nan nan nan nan nan nan nan nan nan nan nan nan nan nan nan nan nan nan nan nan nan nan nan nan nan nan nan nan nan nan nan nan nan nan nan
nan 4 22 19 9 9 17 13 20 20 3 nan nan nan nan nan nan nan nan nan nan nan nan nan nan nan nan nan nan nan nan nan nan nan nan nan nan nan nan nan nan nan nan nan nan nan nan nan nan nan nan nan nan nan nan nan nan nan nan nan nan nan nan nan nan nan nan nan nan nan nan nan nan nan nan nan nan nan nan nan nan nan nan nan nan nan nan nan nan nan nan nan nan nan nan nan nan nan nan nan nan nan nan